Flag for Canada Weather past 2 weeks in Arctic Bay, Nunavut, Canada

Now
1 °F

Passing clouds.


Feels Like: -6 °F
Forecast: -5 / 17 °F
Wind: 3 mph from Southwest

Location: Pond Inlet

Current Time: Apr 28, 2015 at 12:46:13 PM

Latest Report: Apr 28, 2015 at 12:00 PM


Visibility: 30 mi

Pressure: 30.32 "Hg

Humidity: 85%

Dew point: -2 °F

Location of Arctic BayLocation

Historic Weather in Arctic Bay — Graph

°F

Arctic Bay temperature yesterday

Maximum temperature yesterday: 5 °F (at 2:00 PM)
Minimum temperature yesterday: -8 °F (at 4:00 AM)
Average temperature yesterday: -1 °F

Past Weeks' High & Low Weather Summary

 TemperatureHumidityPressure
High5 °F (Apr 27, 2:00 PM)92% (Apr 24, 3:00 AM)30.94 "Hg (Apr 24, 3:00 AM)
Low-27 °F (Apr 14, 4:00 AM)63% (Apr 14, 9:00 PM)29.38 "Hg (Apr 15, 1:00 AM)
Average-7 °F77%30.09 "Hg
* Reported Apr 13 12:00 Noon — Apr 28 12:00 Noon, Arctic Bay, Weather by CustomWeather, © 2015

Note: Actual official high and low records may vary slightly from our data, if they occured in-between our weather recording intervals... More about our weather records

Advertising

Arctic Bay weather history for previous 24 hours

 ConditionsComfort  
Time TempWeatherWind HumidityBarometerVisibility
12:00 PM
Tue, Apr 28
1 °FPassing clouds.3 mph85%30.32 "Hg30 mi
11:00 AM1 °FPassing clouds.3 mph78%30.31 "Hg30 mi
10:00 AM1 °FSunny.3 mph85%30.31 "Hg9 mi
9:00 AM0 °FSunny.2 mph84%30.31 "Hg9 mi
8:00 AM0 °FSunny.3 mph84%30.31 "Hg9 mi
7:00 AM-2 °FSunny.6 mph84%30.30 "Hg9 mi
6:00 AM-2 °FSunny.No wind84%30.29 "Hg9 mi
5:00 AM-6 °FSunny.6 mph84%30.29 "Hg9 mi
4:00 AM-6 °FSunny.5 mph84%30.29 "Hg7 mi
3:00 AM-4 °FSunny.2 mph84%30.28 "Hg9 mi
2:00 AM-2 °FClear.No wind92%30.27 "Hg9 mi
1:00 AM0 °FClear.No wind92%30.27 "Hg9 mi
12:00 AM-2 °FClear.6 mph92%30.27 "Hg9 mi
11:00 PM
Mon, Apr 27
-2 °FClear.9 mph92%30.27 "Hg9 mi
10:00 PM0 °FSunny.6 mph92%30.27 "Hg9 mi
9:00 PM0 °FSunny.8 mph78%30.27 "Hg9 mi
8:00 PM1 °FSunny.8 mph85%30.27 "Hg9 mi
7:00 PM3 °FSunny.6 mph85%30.27 "Hg9 mi
6:00 PM5 °FPassing clouds.6 mph78%30.27 "Hg30 mi
5:00 PM5 °FPassing clouds.6 mph85%30.28 "Hg30 mi
4:00 PM5 °FPassing clouds.5 mph85%30.29 "Hg30 mi
3:00 PM5 °FPassing clouds.5 mph85%30.30 "Hg30 mi
2:00 PM5 °FPassing clouds.6 mph85%30.31 "Hg30 mi
1:00 PM3 °FPassing clouds.6 mph85%30.31 "Hg30 mi
12:00 PM1 °FPassing clouds.7 mph85%30.32 "Hg30 mi
Weather by CustomWeather, © 2015

See weather overviewHow to use our weather pages